AAL1178 KPHX-KJFK

Flight info

Callsign AAL1178
Flight time 4h 14m
Altitude 35000
Route FORPE1 ABQ FTI TOTOE VARNR ICT BUM J110 COWES CREEP CTW KODIE PSB WLKES PAWLN
Aircraft B38M/M-SDE1FGHILORVWXY/HB1

Departure

Time 2026-05-04 03:25
Airport Phoenix Sky Harbor International Airport (KPHX)

Arrival

Time 2026-05-04 07:39
Airport John F. Kennedy International Airport (KJFK)
Time Latitude Longitude Altitude Speed Heading
2026-05-04 03:01 33.43758 -111.99871 1090 ft 0 kts 269°
2026-05-04 03:16 33.43758 -111.99857 1122 ft 4 kts 273°
2026-05-04 03:16 33.43750 -111.99832 1125 ft 4 kts 328°
2026-05-04 03:16 33.43727 -111.99826 1121 ft 3 kts
2026-05-04 03:17 33.43720 -111.99826 1122 ft 0 kts
2026-05-04 03:20 33.43726 -111.99826 1122 ft 2 kts
2026-05-04 03:20 33.43771 -111.99826 1118 ft 8 kts
2026-05-04 03:20 33.43817 -111.99825 1124 ft 12 kts
2026-05-04 03:20 33.43902 -111.99792 1124 ft 15 kts 69°
2026-05-04 03:21 33.43904 -111.99657 1128 ft 17 kts 91°
2026-05-04 03:21 33.43903 -111.99510 1128 ft 18 kts 90°
2026-05-04 03:21 33.43902 -111.99352 1128 ft 20 kts 90°
2026-05-04 03:21 33.43870 -111.99228 1124 ft 15 kts 167°
2026-05-04 03:22 33.43758 -111.99226 1121 ft 17 kts 180°
2026-05-04 03:22 33.43638 -111.99227 1122 ft 18 kts 180°
2026-05-04 03:22 33.43510 -111.99228 1121 ft 19 kts 180°
2026-05-04 03:22 33.43379 -111.99240 1124 ft 19 kts 192°
2026-05-04 03:23 33.43251 -111.99247 1123 ft 18 kts 180°
2026-05-04 03:23 33.43178 -111.99296 1133 ft 10 kts 224°
2026-05-04 03:23 33.43135 -111.99346 1136 ft 8 kts 224°
2026-05-04 03:23 33.43105 -111.99400 1135 ft 8 kts 263°
2026-05-04 03:24 33.43105 -111.99427 1135 ft 0 kts 270°
2026-05-04 03:24 33.43105 -111.99433 1135 ft 3 kts 270°
2026-05-04 03:24 33.43105 -111.99589 1135 ft 51 kts 270°
2026-05-04 03:24 33.43103 -112.00329 1135 ft 124 kts 270°
2026-05-04 03:25 33.43106 -112.01600 1145 ft 180 kts 270°
2026-05-04 03:25 33.43120 -112.03169 1748 ft 194 kts 266°
2026-05-04 03:25 33.43049 -112.04803 2699 ft 196 kts 261°
2026-05-04 03:25 33.42934 -112.06451 3506 ft 208 kts 261°
2026-05-04 03:26 33.42649 -112.08194 4046 ft 223 kts 250°
2026-05-04 03:26 33.42092 -112.09972 4774 ft 235 kts 247°
2026-05-04 03:26 33.41487 -112.11865 5396 ft 251 kts 247°
2026-05-04 03:26 33.40857 -112.13869 6159 ft 260 kts 246°
2026-05-04 03:27 33.40133 -112.15845 7019 ft 261 kts 233°
2026-05-04 03:27 33.38824 -112.17295 7893 ft 258 kts 207°
2026-05-04 03:27 33.37089 -112.17915 8605 ft 268 kts 183°
2026-05-04 03:27 33.35247 -112.17592 9516 ft 270 kts 166°
2026-05-04 03:28 33.33423 -112.16982 10267 ft 276 kts 166°
2026-05-04 03:28 33.31536 -112.16343 10670 ft 295 kts 167°
2026-05-04 03:28 33.29535 -112.15509 10963 ft 318 kts 154°
2026-05-04 03:28 33.27731 -112.13815 11281 ft 342 kts 139°
2026-05-04 03:29 33.25990 -112.11781 11612 ft 358 kts 139°
2026-05-04 03:29 33.24356 -112.09470 12153 ft 371 kts 123°
2026-05-04 03:29 33.23363 -112.06610 12912 ft 378 kts 112°
2026-05-04 03:29 33.22542 -112.03608 13491 ft 386 kts 111°
2026-05-04 03:30 33.21728 -112.00579 14084 ft 391 kts 111°
2026-05-04 03:30 33.20902 -111.97461 14659 ft 397 kts 111°
2026-05-04 03:30 33.20076 -111.94321 15236 ft 402 kts 111°
2026-05-04 03:30 33.19231 -111.91107 15797 ft 407 kts 111°
2026-05-04 03:31 33.18376 -111.87854 16355 ft 413 kts 111°
2026-05-04 03:31 33.17512 -111.84572 16918 ft 418 kts 111°
2026-05-04 03:31 33.16640 -111.81261 17460 ft 422 kts 111°
2026-05-04 03:31 33.15753 -111.77898 17998 ft 427 kts 111°
2026-05-04 03:32 33.14868 -111.74544 18484 ft 432 kts 111°
2026-05-04 03:32 33.13959 -111.71109 18946 ft 437 kts 111°
2026-05-04 03:32 33.13043 -111.67647 19450 ft 441 kts 111°
2026-05-04 03:32 33.12115 -111.64144 19922 ft 445 kts 111°
2026-05-04 03:33 33.11183 -111.60633 20374 ft 450 kts 111°
2026-05-04 03:33 33.10231 -111.57051 20826 ft 454 kts 111°
2026-05-04 03:33 33.09272 -111.53446 21254 ft 459 kts 111°
2026-05-04 03:33 33.08302 -111.49803 21702 ft 463 kts 111°
2026-05-04 03:34 33.07288 -111.46151 22103 ft 465 kts 116°
2026-05-04 03:34 33.05752 -111.42835 22483 ft 462 kts 128°
2026-05-04 03:34 33.03994 -111.39540 22909 ft 468 kts 127°
2026-05-04 03:34 33.02262 -111.36324 23329 ft 471 kts 128°
2026-05-04 03:35 33.00471 -111.33038 23686 ft 475 kts 128°
2026-05-04 03:35 32.98658 -111.29727 24048 ft 479 kts 128°
2026-05-04 03:35 32.96830 -111.26397 24416 ft 482 kts 128°
2026-05-04 03:35 32.94985 -111.23039 24775 ft 486 kts 128°
2026-05-04 03:36 32.93122 -111.19653 25122 ft 490 kts 128°
2026-05-04 03:36 32.91250 -111.16253 25466 ft 494 kts 128°
2026-05-04 03:36 32.89361 -111.12823 25801 ft 497 kts 128°
2026-05-04 03:36 32.87460 -111.09378 26106 ft 502 kts 128°
2026-05-04 03:37 32.85634 -111.06071 26387 ft 506 kts 128°
2026-05-04 03:37 32.83696 -111.02563 26748 ft 508 kts 128°
2026-05-04 03:37 32.81746 -110.99038 27051 ft 512 kts 128°
2026-05-04 03:37 32.79785 -110.95496 27391 ft 515 kts 129°
2026-05-04 03:38 32.77804 -110.91922 27701 ft 519 kts 128°
2026-05-04 03:38 32.75810 -110.88327 27976 ft 523 kts 129°
2026-05-04 03:38 32.73817 -110.84737 28306 ft 525 kts 129°
2026-05-04 03:38 32.71796 -110.81101 28616 ft 528 kts 129°
2026-05-04 03:39 32.69797 -110.77507 28880 ft 531 kts 129°
2026-05-04 03:39 32.67750 -110.73830 29129 ft 535 kts 129°
2026-05-04 03:39 32.65718 -110.70116 29443 ft 540 kts 124°
2026-05-04 03:39 32.64187 -110.66002 29752 ft 550 kts 110°
2026-05-04 03:40 32.63143 -110.61640 30019 ft 554 kts 108°
2026-05-04 03:40 32.62127 -110.57240 30201 ft 558 kts 107°
2026-05-04 03:40 32.61122 -110.52781 30460 ft 560 kts 107°
2026-05-04 03:40 32.60127 -110.48301 30696 ft 563 kts 107°
2026-05-04 03:41 32.59131 -110.43805 30978 ft 566 kts 107°
2026-05-04 03:41 32.58126 -110.39282 31226 ft 569 kts 107°
2026-05-04 03:41 32.57131 -110.34804 31518 ft 570 kts 107°
2026-05-04 03:41 32.56119 -110.30271 31798 ft 571 kts 107°
2026-05-04 03:42 32.55102 -110.25715 32113 ft 572 kts 107°
2026-05-04 03:42 32.54084 -110.21157 32361 ft 573 kts 108°
2026-05-04 03:42 32.53060 -110.16590 32705 ft 573 kts 108°
2026-05-04 03:42 32.52046 -110.12072 33014 ft 573 kts 108°
2026-05-04 03:43 32.51027 -110.07541 33220 ft 576 kts 108°
2026-05-04 03:43 32.49998 -110.02973 33467 ft 577 kts 108°
2026-05-04 03:43 32.48972 -109.98428 33768 ft 578 kts 108°
2026-05-04 03:43 32.47932 -109.93825 34010 ft 580 kts 108°
2026-05-04 03:44 32.46888 -109.89216 34279 ft 580 kts 108°
2026-05-04 03:44 32.45843 -109.84610 34585 ft 579 kts 108°
2026-05-04 03:44 32.44800 -109.80020 34883 ft 578 kts 108°
2026-05-04 03:44 32.43825 -109.75391 35119 ft 580 kts 101°
2026-05-04 03:45 32.43184 -109.70690 35364 ft 580 kts 99°
2026-05-04 03:45 32.42579 -109.66023 35607 ft 580 kts 99°
2026-05-04 03:45 32.42009 -109.61530 35848 ft 580 kts 99°
2026-05-04 03:45 32.41409 -109.56804 36092 ft 579 kts 99°
2026-05-04 03:46 32.40811 -109.52103 36327 ft 579 kts 99°
2026-05-04 03:46 32.40209 -109.47381 36528 ft 578 kts 99°
2026-05-04 03:46 32.39620 -109.42775 36798 ft 577 kts 99°
2026-05-04 03:47 32.38409 -109.33360 36819 ft 578 kts 99°
2026-05-04 03:47 32.37195 -109.23969 36845 ft 578 kts 99°
2026-05-04 03:48 32.35976 -109.14592 36841 ft 578 kts 99°
2026-05-04 03:48 32.34759 -109.05269 36816 ft 576 kts 98°
2026-05-04 03:49 32.33530 -108.95901 36861 ft 577 kts 98°
2026-05-04 03:49 32.32296 -108.86554 36854 ft 576 kts 98°
2026-05-04 03:50 32.31055 -108.77204 36877 ft 576 kts 98°
2026-05-04 03:50 32.30431 -108.72517 37045 ft 577 kts 98°
2026-05-04 03:50 32.29802 -108.67825 37043 ft 578 kts 98°
2026-05-04 03:51 32.28552 -108.58515 37030 ft 578 kts 98°
2026-05-04 03:51 32.27290 -108.49173 36990 ft 576 kts 98°
2026-05-04 03:52 32.26021 -108.39829 36946 ft 575 kts 98°
2026-05-04 03:52 32.24747 -108.30505 36897 ft 576 kts 98°
2026-05-04 03:53 32.23476 -108.21258 36881 ft 576 kts 98°
2026-05-04 03:53 32.22187 -108.11926 36883 ft 575 kts 98°
2026-05-04 03:54 32.20891 -108.02604 36885 ft 575 kts 98°
2026-05-04 03:54 32.19592 -107.93303 36884 ft 575 kts 98°
2026-05-04 03:55 32.18292 -107.84049 36884 ft 575 kts 99°
2026-05-04 03:55 32.17635 -107.79396 37035 ft 575 kts 99°
2026-05-04 03:55 32.16981 -107.74770 37042 ft 575 kts 99°
2026-05-04 03:56 32.15658 -107.65455 37034 ft 575 kts 98°
2026-05-04 03:56 32.14330 -107.56156 36982 ft 575 kts 98°
2026-05-04 03:57 32.12994 -107.46852 36954 ft 575 kts 98°
2026-05-04 03:57 32.11666 -107.37652 36939 ft 575 kts 98°
2026-05-04 03:58 32.09635 -107.23675 36910 ft 576 kts 98°
2026-05-04 03:58 32.08273 -107.14367 36943 ft 576 kts 98°
2026-05-04 03:59 32.06907 -107.05078 36970 ft 576 kts 99°
2026-05-04 03:59 32.05538 -106.95819 36974 ft 578 kts 98°
2026-05-04 04:00 32.04155 -106.86508 36980 ft 579 kts 99°
2026-05-04 04:00 32.02763 -106.77194 36992 ft 579 kts 99°
2026-05-04 04:01 32.01366 -106.67887 37043 ft 576 kts 98°
2026-05-04 04:01 31.99969 -106.58633 37022 ft 578 kts 98°
2026-05-04 04:02 31.98562 -106.49341 36990 ft 577 kts 98°
2026-05-04 04:02 31.97147 -106.40051 37025 ft 578 kts 99°
2026-05-04 04:03 31.95730 -106.30729 37022 ft 578 kts 96°
2026-05-04 04:03 31.95487 -106.26035 36976 ft 571 kts 81°
2026-05-04 04:03 31.95952 -106.21453 37005 ft 566 kts 76°
2026-05-04 04:04 31.96954 -106.12283 36957 ft 569 kts 77°
2026-05-04 04:04 31.97951 -106.03045 36922 ft 569 kts 77°
2026-05-04 04:05 31.98943 -105.93804 36910 ft 570 kts 76°
2026-05-04 04:05 31.99927 -105.84554 36906 ft 569 kts 76°
2026-05-04 04:06 32.00901 -105.75351 36917 ft 570 kts 76°
2026-05-04 04:06 32.01873 -105.66097 36912 ft 570 kts 76°
2026-05-04 04:07 32.02835 -105.56863 36895 ft 567 kts 76°
2026-05-04 04:07 32.03784 -105.47705 36926 ft 567 kts 76°
2026-05-04 04:08 32.04732 -105.38483 36912 ft 566 kts 76°
2026-05-04 04:08 32.05670 -105.29289 36912 ft 567 kts 77°
2026-05-04 04:09 32.06603 -105.20070 36909 ft 565 kts 77°
2026-05-04 04:09 32.07528 -105.10877 36908 ft 565 kts 77°
2026-05-04 04:10 32.08438 -105.01764 36921 ft 565 kts 77°
2026-05-04 04:10 32.09350 -104.92558 36934 ft 565 kts 77°
2026-05-04 04:11 32.10251 -104.83398 36916 ft 561 kts 78°
2026-05-04 04:11 32.11142 -104.74264 36913 ft 561 kts 78°
2026-05-04 04:12 32.12022 -104.65180 36922 ft 562 kts 78°
2026-05-04 04:12 32.12902 -104.56036 36936 ft 561 kts 78°
2026-05-04 04:13 32.13772 -104.46914 36983 ft 561 kts 78°
2026-05-04 04:13 32.14639 -104.37743 36979 ft 562 kts 78°
2026-05-04 04:14 32.15500 -104.28586 37001 ft 562 kts 78°
2026-05-04 04:14 32.16353 -104.19422 37010 ft 561 kts 79°
2026-05-04 04:15 32.17185 -104.10424 36984 ft 558 kts 79°
2026-05-04 04:15 32.18022 -104.01306 36911 ft 559 kts 79°
2026-05-04 04:16 32.18851 -103.92187 36920 ft 559 kts 79°
2026-05-04 04:16 32.19673 -103.83082 36925 ft 558 kts 79°
2026-05-04 04:17 32.20480 -103.74072 36919 ft 555 kts 79°
2026-05-04 04:17 32.21285 -103.65001 36923 ft 555 kts 79°
2026-05-04 04:18 32.22083 -103.55944 36926 ft 555 kts 79°
2026-05-04 04:18 32.22874 -103.46881 36947 ft 555 kts 80°
2026-05-04 04:19 32.23653 -103.37891 36931 ft 552 kts 80°
2026-05-04 04:19 32.24426 -103.28889 36938 ft 553 kts 80°
2026-05-04 04:20 32.25196 -103.19854 36938 ft 553 kts 80°
2026-05-04 04:20 32.25958 -103.10822 36952 ft 552 kts 81°
2026-05-04 04:21 32.26711 -103.01833 36933 ft 549 kts 81°
2026-05-04 04:21 32.27450 -102.92928 36942 ft 550 kts 81°
2026-05-04 04:22 32.28190 -102.83939 36946 ft 550 kts 81°
2026-05-04 04:22 32.28923 -102.74946 36954 ft 549 kts 81°
2026-05-04 04:23 32.29641 -102.66067 36942 ft 546 kts 81°
2026-05-04 04:23 32.30357 -102.57134 36953 ft 547 kts 81°
2026-05-04 04:24 32.31066 -102.48200 36952 ft 547 kts 81°
2026-05-04 04:24 32.31769 -102.39267 36962 ft 547 kts 81°
2026-05-04 04:25 32.32465 -102.30347 36950 ft 544 kts 81°
2026-05-04 04:25 32.33148 -102.21498 36955 ft 545 kts 82°
2026-05-04 04:26 32.33829 -102.12600 36976 ft 545 kts 82°
2026-05-04 04:26 32.34506 -102.03682 36981 ft 544 kts 82°
2026-05-04 04:27 32.35175 -101.94777 36943 ft 542 kts 82°
2026-05-04 04:27 32.35834 -101.85945 36955 ft 543 kts 82°
2026-05-04 04:28 32.36490 -101.77081 36952 ft 543 kts 82°
2026-05-04 04:28 32.37142 -101.68176 36952 ft 543 kts 82°
2026-05-04 04:29 32.37788 -101.59282 36943 ft 542 kts 82°
2026-05-04 04:29 32.38421 -101.50470 36957 ft 543 kts 82°
2026-05-04 04:30 32.38990 -101.41577 36958 ft 543 kts 82°
2026-05-04 04:30 32.39564 -101.32691 36956 ft 543 kts 82°
2026-05-04 04:31 32.40134 -101.23790 36959 ft 545 kts 82°
2026-05-04 04:31 32.40701 -101.14840 36971 ft 546 kts 82°
2026-05-04 04:32 32.41257 -101.05942 36977 ft 546 kts 82°
2026-05-04 04:32 32.41812 -100.96986 36995 ft 546 kts 82°
2026-05-04 04:33 32.42359 -100.88052 36985 ft 546 kts 82°
2026-05-04 04:33 32.42900 -100.79094 37004 ft 546 kts 82°
2026-05-04 04:34 32.43433 -100.70180 37035 ft 546 kts 82°
2026-05-04 04:34 32.43960 -100.61235 37022 ft 547 kts 83°
2026-05-04 04:35 32.44489 -100.52194 37089 ft 554 kts 83°
2026-05-04 04:35 32.45013 -100.43092 37083 ft 554 kts 83°
2026-05-04 04:36 32.45530 -100.34007 37080 ft 554 kts 83°
2026-05-04 04:36 32.45783 -100.29521 36969 ft 554 kts 83°
2026-05-04 04:36 32.46038 -100.24962 36982 ft 554 kts 83°
2026-05-04 04:37 32.47040 -100.06778 37015 ft 553 kts 83°
2026-05-04 04:38 32.47530 -99.97714 37029 ft 553 kts 83°
2026-05-04 04:38 32.48017 -99.88625 37038 ft 553 kts 82°
2026-05-04 04:39 32.49217 -99.79772 37079 ft 547 kts 75°
2026-05-04 04:39 32.50639 -99.70953 37056 ft 545 kts 74°
2026-05-04 04:40 32.52067 -99.62120 37081 ft 546 kts 74°
2026-05-04 04:40 32.53480 -99.53344 37047 ft 540 kts 74°
2026-05-04 04:41 32.54867 -99.44692 37053 ft 540 kts 74°
2026-05-04 04:41 32.56259 -99.35960 37004 ft 539 kts 74°
2026-05-04 04:42 32.57645 -99.27230 37003 ft 539 kts 74°
2026-05-04 04:42 32.59024 -99.18506 37005 ft 539 kts 75°
2026-05-04 04:43 32.60389 -99.09827 37032 ft 539 kts 75°
2026-05-04 04:43 32.61758 -99.01082 37048 ft 539 kts 74°
2026-05-04 04:44 32.63120 -98.92340 37055 ft 539 kts 75°
2026-05-04 04:44 32.64475 -98.83605 37053 ft 540 kts 75°
2026-05-04 04:45 32.65824 -98.74862 37047 ft 539 kts 75°
2026-05-04 04:47 32.70483 -98.44344 37017 ft 539 kts 75°
2026-05-04 04:47 32.71808 -98.35571 37034 ft 539 kts 75°
2026-05-04 04:48 32.73115 -98.26879 37035 ft 539 kts 75°
2026-05-04 04:49 32.76383 -98.04940 37049 ft 540 kts 75°
2026-05-04 04:49 32.77677 -97.96179 37077 ft 540 kts 75°
2026-05-04 04:50 32.78952 -97.87506 37041 ft 539 kts 75°
2026-05-04 04:50 32.80234 -97.78731 37147 ft 539 kts 75°
2026-05-04 04:51 32.81509 -97.69974 37157 ft 539 kts 75°
2026-05-04 04:51 32.82781 -97.61186 37149 ft 539 kts 75°
2026-05-04 04:52 32.84043 -97.52416 37127 ft 537 kts 75°
2026-05-04 04:52 32.85290 -97.43719 37065 ft 537 kts 75°
2026-05-04 04:53 32.86535 -97.34992 37065 ft 537 kts 75°
2026-05-04 04:53 32.87781 -97.26228 37063 ft 537 kts 75°
2026-05-04 04:54 32.88925 -97.17451 37021 ft 541 kts 83°
2026-05-04 04:54 32.88955 -97.08488 37009 ft 544 kts 86°
2026-05-04 04:55 32.88973 -96.99559 37036 ft 544 kts 86°
2026-05-04 04:55 32.88977 -96.90559 37075 ft 544 kts 86°
2026-05-04 04:56 32.88975 -96.81579 37090 ft 543 kts 86°
2026-05-04 04:56 32.88966 -96.72599 37069 ft 542 kts 86°
2026-05-04 04:57 32.88951 -96.63632 37061 ft 542 kts 86°
2026-05-04 04:57 32.88929 -96.54729 37085 ft 542 kts 86°
2026-05-04 04:58 32.88901 -96.45770 37099 ft 542 kts 86°
2026-05-04 04:58 32.88867 -96.36816 37069 ft 541 kts 86°
2026-05-04 04:59 32.88826 -96.27864 37083 ft 541 kts 86°
2026-05-04 04:59 32.88780 -96.18998 37076 ft 541 kts 87°
2026-05-04 05:00 32.88726 -96.10066 37076 ft 541 kts 87°
2026-05-04 05:01 32.88634 -95.96655 37074 ft 540 kts 86°
2026-05-04 05:01 32.88565 -95.87735 37073 ft 540 kts 87°
2026-05-04 05:02 32.88490 -95.78854 37072 ft 540 kts 87°
2026-05-04 05:02 32.88409 -95.69958 37095 ft 540 kts 86°
2026-05-04 05:03 32.88320 -95.61021 37078 ft 541 kts 87°
2026-05-04 05:04 32.88129 -95.43311 37082 ft 541 kts 87°
2026-05-04 05:04 32.88396 -95.34447 37070 ft 530 kts 73°
2026-05-04 05:06 32.93680 -94.99821 37077 ft 533 kts 74°
2026-05-04 05:07 32.94991 -94.91130 37090 ft 533 kts 74°
2026-05-04 05:07 32.96295 -94.82442 37079 ft 533 kts 74°
2026-05-04 05:09 33.02083 -94.43349 37079 ft 535 kts 74°
2026-05-04 05:10 33.03359 -94.34612 37076 ft 535 kts 74°
2026-05-04 05:10 33.04621 -94.25933 37084 ft 535 kts 74°
2026-05-04 05:11 33.05882 -94.17209 37086 ft 535 kts 74°
2026-05-04 05:11 33.07139 -94.08471 37086 ft 535 kts 74°
2026-05-04 05:12 33.08392 -93.99712 37083 ft 536 kts 74°
2026-05-04 05:12 33.09630 -93.91017 37082 ft 536 kts 74°
2026-05-04 05:13 33.10871 -93.82254 37080 ft 537 kts 74°
2026-05-04 05:13 33.12107 -93.73477 37079 ft 537 kts 74°
2026-05-04 05:14 33.13338 -93.64695 37083 ft 537 kts 74°
2026-05-04 05:14 33.14553 -93.55976 37081 ft 537 kts 74°
2026-05-04 05:15 33.15772 -93.47186 37076 ft 537 kts 74°
2026-05-04 05:15 33.16981 -93.38419 37073 ft 537 kts 74°
2026-05-04 05:16 33.18187 -93.29625 37073 ft 537 kts 74°
2026-05-04 05:16 33.19378 -93.20899 37075 ft 537 kts 74°
2026-05-04 05:17 33.20573 -93.12097 37072 ft 537 kts 74°
2026-05-04 05:17 33.21762 -93.03287 37105 ft 537 kts 74°
2026-05-04 05:18 33.22941 -92.94512 37079 ft 537 kts 74°
2026-05-04 05:18 33.24120 -92.85693 37081 ft 537 kts 74°
2026-05-04 05:19 33.25285 -92.76941 37092 ft 537 kts 74°
2026-05-04 05:19 33.26126 -92.68062 37093 ft 540 kts 78°
2026-05-04 05:20 33.26952 -92.59152 37092 ft 539 kts 77°
2026-05-04 05:20 33.27781 -92.50247 37088 ft 539 kts 77°
2026-05-04 05:21 33.28598 -92.41403 37085 ft 539 kts 77°
2026-05-04 05:21 33.29411 -92.32523 37082 ft 539 kts 77°
2026-05-04 05:22 33.30219 -92.23639 37098 ft 537 kts 77°
2026-05-04 05:22 33.31019 -92.14770 37096 ft 536 kts 78°
2026-05-04 05:23 33.31806 -92.05972 37087 ft 537 kts 78°
2026-05-04 05:23 33.32593 -91.97100 37079 ft 537 kts 78°
2026-05-04 05:24 33.33373 -91.88221 37117 ft 536 kts 78°
2026-05-04 05:24 33.34144 -91.79397 37084 ft 534 kts 78°
2026-05-04 05:25 33.34903 -91.70626 37093 ft 534 kts 78°
2026-05-04 05:25 33.35662 -91.61791 37090 ft 534 kts 78°
2026-05-04 05:26 33.36414 -91.52954 37086 ft 534 kts 78°
2026-05-04 05:26 33.37156 -91.44152 37085 ft 531 kts 78°
2026-05-04 05:28 33.40057 -91.09033 37103 ft 529 kts 79°
2026-05-04 05:29 33.40760 -91.00337 37090 ft 528 kts 79°
2026-05-04 05:29 33.41460 -90.91595 37105 ft 528 kts 79°
2026-05-04 05:31 33.44188 -90.56759 37100 ft 526 kts 79°
2026-05-04 05:32 33.44856 -90.48038 37102 ft 526 kts 79°
2026-05-04 05:33 33.45848 -90.34963 37125 ft 525 kts 79°
2026-05-04 05:33 33.46355 -90.26347 37112 ft 525 kts 85°
2026-05-04 05:34 33.46457 -90.17608 37114 ft 525 kts 84°
2026-05-04 05:34 33.46617 -90.08857 37107 ft 525 kts 84°
2026-05-04 05:35 33.46775 -90.00136 37106 ft 525 kts 84°
2026-05-04 05:35 33.46927 -89.91476 37083 ft 522 kts 84°
2026-05-04 05:36 33.47074 -89.82786 37096 ft 523 kts 84°
2026-05-04 05:36 33.47215 -89.74075 37092 ft 522 kts 84°
2026-05-04 05:37 33.47349 -89.65399 37101 ft 523 kts 84°
2026-05-04 05:37 33.47477 -89.56750 37103 ft 523 kts 85°
2026-05-04 05:38 33.47658 -89.43695 37104 ft 523 kts 85°
2026-05-04 05:38 33.47771 -89.35006 37112 ft 523 kts 85°
2026-05-04 05:39 33.47929 -89.22004 37134 ft 522 kts 85°
2026-05-04 05:40 33.48074 -89.09013 37124 ft 520 kts 85°
2026-05-04 05:40 33.48162 -89.00349 37110 ft 520 kts 85°
2026-05-04 05:41 33.48245 -88.91689 37110 ft 520 kts 85°
2026-05-04 05:41 33.48321 -88.83077 37132 ft 520 kts 85°
2026-05-04 05:42 33.48392 -88.74464 37108 ft 518 kts 85°
2026-05-04 05:42 33.48457 -88.65837 37141 ft 518 kts 85°
2026-05-04 05:43 33.48517 -88.57210 37140 ft 518 kts 85°
2026-05-04 05:45 33.51901 -88.23436 37094 ft 510 kts 77°
2026-05-04 05:47 33.55840 -87.89879 37086 ft 509 kts 77°
2026-05-04 05:47 33.56807 -87.81524 37083 ft 509 kts 77°
2026-05-04 05:48 33.57771 -87.73131 37087 ft 509 kts 77°
2026-05-04 05:48 33.58732 -87.64716 37081 ft 508 kts 78°
2026-05-04 05:49 33.59521 -87.57773 37083 ft 507 kts 78°
2026-05-04 05:49 33.60623 -87.48019 37078 ft 507 kts 78°
2026-05-04 05:51 33.64190 -87.15928 37092 ft 506 kts 78°
2026-05-04 05:52 33.65254 -87.06204 37131 ft 506 kts 78°
2026-05-04 05:52 33.66017 -86.99204 37138 ft 506 kts 78°
2026-05-04 05:54 33.66825 -86.65367 37163 ft 510 kts 87°
2026-05-04 05:55 33.66749 -86.56917 37159 ft 510 kts 87°
2026-05-04 05:55 33.66667 -86.48408 37155 ft 510 kts 87°
2026-05-04 05:56 33.66579 -86.39914 37156 ft 510 kts 87°
2026-05-04 05:56 33.66485 -86.31405 37154 ft 510 kts 87°
2026-05-04 05:57 33.66386 -86.22953 37157 ft 510 kts 87°
2026-05-04 05:57 33.66280 -86.14449 37163 ft 509 kts 87°
2026-05-04 05:58 33.66169 -86.05966 37161 ft 509 kts 88°
2026-05-04 05:58 33.66052 -85.97468 37156 ft 509 kts 88°
2026-05-04 05:59 33.65930 -85.89041 37159 ft 509 kts 88°
2026-05-04 05:59 33.65802 -85.80557 37158 ft 509 kts 88°
2026-05-04 06:00 33.65668 -85.72057 37142 ft 509 kts 88°
2026-05-04 06:00 33.65529 -85.63640 37158 ft 510 kts 88°
2026-05-04 06:01 33.65382 -85.55143 37161 ft 509 kts 88°
2026-05-04 06:03 33.64743 -85.21306 37182 ft 509 kts 88°
2026-05-04 06:05 33.63914 -84.83238 37162 ft 508 kts 88°
2026-05-04 06:06 33.63713 -84.74764 37143 ft 508 kts 88°
2026-05-04 06:06 33.63508 -84.66296 37155 ft 508 kts 88°
2026-05-04 06:07 33.63298 -84.57855 37137 ft 507 kts 88°
2026-05-04 06:07 33.63083 -84.49395 37139 ft 507 kts 89°
2026-05-04 06:08 33.63367 -84.41087 37128 ft 495 kts 71°
2026-05-04 06:08 33.64794 -84.32979 37155 ft 499 kts 75°
2026-05-04 06:09 33.66112 -84.24789 37150 ft 499 kts 75°
2026-05-04 06:11 33.71321 -83.92115 37128 ft 499 kts 75°
2026-05-04 06:13 33.76442 -83.59415 37139 ft 499 kts 75°
2026-05-04 06:14 33.80858 -83.30734 37130 ft 501 kts 76°
2026-05-04 06:15 33.82110 -83.22521 37130 ft 501 kts 76°
2026-05-04 06:15 33.83345 -83.14376 37127 ft 501 kts 76°
2026-05-04 06:16 33.84587 -83.06149 37125 ft 500 kts 76°
2026-05-04 06:16 33.85827 -82.97906 37128 ft 500 kts 76°
2026-05-04 06:17 33.87104 -82.89685 37123 ft 498 kts 71°
2026-05-04 06:17 33.88366 -82.85875 37122 ft 486 kts 55°
2026-05-04 06:17 33.90089 -82.82464 37125 ft 487 kts 53°
2026-05-04 06:18 33.93656 -82.75540 37146 ft 487 kts 53°
2026-05-04 06:20 34.08167 -82.47952 37115 ft 489 kts 53°
2026-05-04 06:21 34.17254 -82.30587 37127 ft 492 kts 53°
2026-05-04 06:22 34.20876 -82.23641 37126 ft 491 kts 53°
2026-05-04 06:25 34.45802 -81.74219 37135 ft 493 kts 54°
2026-05-04 06:26 34.49345 -81.67110 37115 ft 495 kts 54°
2026-05-04 06:26 34.52902 -81.59960 37110 ft 496 kts 54°
2026-05-04 06:27 34.61784 -81.42042 37109 ft 496 kts 54°
2026-05-04 06:28 34.65308 -81.34907 37114 ft 496 kts 54°
2026-05-04 06:28 34.68845 -81.27733 37150 ft 496 kts 55°
2026-05-04 06:29 34.72406 -81.20492 37130 ft 500 kts 55°
2026-05-04 06:29 34.75966 -81.13242 37129 ft 500 kts 55°
2026-05-04 06:30 34.79507 -81.05959 37124 ft 501 kts 59°
2026-05-04 06:30 34.82397 -80.98320 37110 ft 504 kts 62°
2026-05-04 06:31 34.85267 -80.90556 37114 ft 503 kts 63°
2026-05-04 06:31 34.88138 -80.82759 37111 ft 506 kts 63°
2026-05-04 06:33 34.99596 -80.51453 37082 ft 508 kts 64°
2026-05-04 06:34 35.02456 -80.43590 37094 ft 509 kts 64°
2026-05-04 06:34 35.05304 -80.35740 37104 ft 509 kts 64°
2026-05-04 06:36 35.16728 -80.04061 37120 ft 512 kts 64°
2026-05-04 06:37 35.19570 -79.96140 37112 ft 512 kts 64°
2026-05-04 06:37 35.22418 -79.88189 37109 ft 512 kts 64°
2026-05-04 06:38 35.25270 -79.80210 37098 ft 512 kts 64°
2026-05-04 06:40 35.36647 -79.48167 37120 ft 515 kts 65°
2026-05-04 06:40 35.39496 -79.40093 37109 ft 516 kts 65°
2026-05-04 06:41 35.42317 -79.32076 37122 ft 518 kts 65°
2026-05-04 06:41 35.45164 -79.23965 37126 ft 517 kts 65°
2026-05-04 06:42 35.48000 -79.15862 37129 ft 517 kts 65°
2026-05-04 06:44 35.59316 -78.83332 37116 ft 520 kts 66°
2026-05-04 06:44 35.62135 -78.75163 37107 ft 520 kts 66°
2026-05-04 06:45 35.64952 -78.66979 37101 ft 520 kts 66°
2026-05-04 06:45 35.67755 -78.58816 37124 ft 522 kts 66°
2026-05-04 06:46 35.70568 -78.50606 37159 ft 522 kts 66°
2026-05-04 06:46 35.73385 -78.42357 37121 ft 523 kts 66°
2026-05-04 06:48 35.84591 -78.09356 37124 ft 523 kts 66°
2026-05-04 06:50 35.95742 -77.76160 37125 ft 527 kts 67°
2026-05-04 06:51 35.99313 -77.68385 37126 ft 517 kts 44°
2026-05-04 06:51 36.04098 -77.61812 37095 ft 519 kts 44°
2026-05-04 06:52 36.08985 -77.55214 37122 ft 522 kts 44°
2026-05-04 06:52 36.13907 -77.48595 37119 ft 524 kts 44°
2026-05-04 06:53 36.18825 -77.41969 37124 ft 524 kts 44°
2026-05-04 06:53 36.23663 -77.35438 37141 ft 524 kts 44°
2026-05-04 06:54 36.28584 -77.28782 37145 ft 524 kts 44°
2026-05-04 06:54 36.33718 -77.22416 37144 ft 521 kts 38°
2026-05-04 06:55 36.39098 -77.16374 37149 ft 524 kts 38°
2026-05-04 06:55 36.44505 -77.10317 37139 ft 524 kts 38°
2026-05-04 06:57 36.66070 -76.86047 37126 ft 524 kts 38°
2026-05-04 06:58 36.71438 -76.79976 37143 ft 527 kts 38°
2026-05-04 06:58 36.76864 -76.73826 37147 ft 526 kts 37°
2026-05-04 06:59 36.82273 -76.67685 37143 ft 526 kts 38°
2026-05-04 06:59 36.87688 -76.61523 37134 ft 526 kts 38°
2026-05-04 07:01 37.09276 -76.36837 37111 ft 528 kts 38°
2026-05-04 07:02 37.14692 -76.30614 37107 ft 528 kts 38°
2026-05-04 07:02 37.20058 -76.24434 37108 ft 527 kts 37°
2026-05-04 07:03 37.25456 -76.18204 37114 ft 527 kts 37°
2026-05-04 07:03 37.30837 -76.11982 37095 ft 528 kts 37°
2026-05-04 07:04 37.36255 -76.05705 37158 ft 530 kts 37°
2026-05-04 07:04 37.41620 -75.99476 37102 ft 528 kts 37°
2026-05-04 07:05 37.47000 -75.93219 37116 ft 528 kts 37°
2026-05-04 07:05 37.52399 -75.86947 37120 ft 527 kts 35°
2026-05-04 07:06 37.58448 -75.82048 37116 ft 517 kts 24°
2026-05-04 07:06 37.61526 -75.79707 37118 ft 516 kts 24°
2026-05-04 07:07 37.67644 -75.75106 37128 ft 517 kts 24°
2026-05-04 07:09 37.91985 -75.55774 37124 ft 519 kts 27°
2026-05-04 07:09 37.97961 -75.50620 37112 ft 520 kts 27°
2026-05-04 07:10 38.03935 -75.45461 37096 ft 518 kts 27°
2026-05-04 07:12 38.28504 -75.27608 37137 ft 487 kts
2026-05-04 07:12 38.35192 -75.26050 37113 ft 489 kts
2026-05-04 07:13 38.41851 -75.24614 37166 ft 488 kts
2026-05-04 07:13 38.48543 -75.23204 37103 ft 487 kts
2026-05-04 07:14 38.65250 -75.19691 37118 ft 487 kts
2026-05-04 07:15 38.71716 -75.16988 37085 ft 509 kts 26°
2026-05-04 07:15 38.77508 -75.11563 37071 ft 518 kts 31°
2026-05-04 07:16 38.83231 -75.05991 37079 ft 519 kts 31°
2026-05-04 07:16 38.88966 -75.00358 37087 ft 518 kts 31°
2026-05-04 07:17 38.94646 -74.94765 37094 ft 518 kts 31°
2026-05-04 07:17 39.00354 -74.89133 37091 ft 518 kts 31°
2026-05-04 07:18 39.06063 -74.83489 37109 ft 518 kts 31°
2026-05-04 07:18 39.11683 -74.77644 37103 ft 520 kts 34°
2026-05-04 07:19 39.17214 -74.71673 37073 ft 520 kts 34°
2026-05-04 07:19 39.22714 -74.65749 36927 ft 519 kts 34°
2026-05-04 07:20 39.25507 -74.62738 35868 ft 526 kts 34°
2026-05-04 07:20 39.28295 -74.59727 35386 ft 520 kts 33°
2026-05-04 07:20 39.31074 -74.56724 34648 ft 522 kts 33°
2026-05-04 07:20 39.33864 -74.53706 33850 ft 525 kts 33°
2026-05-04 07:22 39.53292 -74.32531 28250 ft 516 kts 34°
2026-05-04 07:22 39.56017 -74.29543 27310 ft 515 kts 34°
2026-05-04 07:23 39.58744 -74.26552 26385 ft 513 kts 35°
2026-05-04 07:23 39.61464 -74.23565 25494 ft 511 kts 35°
2026-05-04 07:23 39.64167 -74.20593 24737 ft 505 kts 35°
2026-05-04 07:23 39.66825 -74.17669 24070 ft 498 kts 35°
2026-05-04 07:24 39.69418 -74.14812 23407 ft 491 kts 36°
2026-05-04 07:24 39.72001 -74.11964 22677 ft 484 kts 36°
2026-05-04 07:24 39.74541 -74.09161 21951 ft 478 kts 36°
2026-05-04 07:24 39.77059 -74.06378 21264 ft 472 kts 36°
2026-05-04 07:25 39.79544 -74.03629 20661 ft 465 kts 36°
2026-05-04 07:26 39.97433 -73.89155 17045 ft 411 kts 24°
2026-05-04 07:27 39.99920 -73.87390 16618 ft 404 kts 24°
2026-05-04 07:27 40.02410 -73.85769 16221 ft 395 kts 20°
2026-05-04 07:27 40.04884 -73.84279 15917 ft 387 kts 20°
2026-05-04 07:27 40.07289 -73.82812 15675 ft 378 kts 20°
2026-05-04 07:28 40.09599 -73.81396 15296 ft 364 kts 20°
2026-05-04 07:28 40.11856 -73.80008 14750 ft 354 kts 20°
2026-05-04 07:28 40.14053 -73.78655 14257 ft 345 kts 20°
2026-05-04 07:28 40.16180 -73.77344 13813 ft 335 kts 20°
2026-05-04 07:29 40.18247 -73.76070 13353 ft 325 kts 20°
2026-05-04 07:29 40.20267 -73.74823 12938 ft 315 kts 20°
2026-05-04 07:29 40.22218 -73.73618 12544 ft 305 kts 20°
2026-05-04 07:29 40.24082 -73.72465 12186 ft 296 kts 20°
2026-05-04 07:30 40.25920 -73.71329 11685 ft 292 kts 20°
2026-05-04 07:30 40.27746 -73.70199 11174 ft 289 kts 20°
2026-05-04 07:30 40.29541 -73.69087 10675 ft 287 kts 21°
2026-05-04 07:30 40.31336 -73.67976 10188 ft 284 kts 21°
2026-05-04 07:31 40.33109 -73.66876 9683 ft 281 kts 21°
2026-05-04 07:31 40.34864 -73.65790 9146 ft 279 kts 21°
2026-05-04 07:33 40.46511 -73.58549 5899 ft 260 kts 21°
2026-05-04 07:33 40.48149 -73.57529 5396 ft 259 kts 21°
2026-05-04 07:33 40.49777 -73.56515 4898 ft 259 kts 21°
2026-05-04 07:33 40.51403 -73.55502 4390 ft 258 kts 20°
2026-05-04 07:34 40.53063 -73.54706 3864 ft 249 kts 359°
2026-05-04 07:34 40.54636 -73.55173 3344 ft 231 kts 320°
2026-05-04 07:34 40.55602 -73.56716 3107 ft 208 kts 295°
2026-05-04 07:34 40.56308 -73.58266 3052 ft 190 kts 298°
2026-05-04 07:35 40.56976 -73.59674 2917 ft 173 kts 297°
2026-05-04 07:35 40.57583 -73.60988 2699 ft 167 kts 297°
2026-05-04 07:35 40.58175 -73.62286 2472 ft 165 kts 296°
2026-05-04 07:35 40.58762 -73.63575 2245 ft 164 kts 296°
2026-05-04 07:36 40.59343 -73.64853 2017 ft 160 kts 297°
2026-05-04 07:36 40.59906 -73.66091 1809 ft 154 kts 297°
2026-05-04 07:38 40.63152 -73.73235 573 ft 132 kts 297°
2026-05-04 07:38 40.63621 -73.74267 398 ft 131 kts 296°
2026-05-04 07:38 40.64077 -73.75284 191 ft 130 kts 296°
2026-05-04 07:38 40.64535 -73.76281 44 ft 129 kts 297°
2026-05-04 07:39 40.64924 -73.77153 21 ft 78 kts 301°
2026-05-04 07:39 40.65134 -73.77606 20 ft 46 kts 300°
2026-05-04 07:39 40.65224 -73.77810 23 ft 16 kts 296°
2026-05-04 07:39 40.65192 -73.77941 22 ft 15 kts 214°
2026-05-04 07:40 40.65123 -73.77997 25 ft 11 kts 216°
2026-05-04 07:40 40.65133 -73.78083 26 ft 11 kts 300°
2026-05-04 07:40 40.65178 -73.78184 27 ft 15 kts 301°
2026-05-04 07:40 40.65237 -73.78317 28 ft 20 kts 299°
2026-05-04 07:41 40.65246 -73.78514 28 ft 26 kts 241°
2026-05-04 07:41 40.65162 -73.78722 27 ft 25 kts 242°
2026-05-04 07:41 40.65137 -73.78895 30 ft 18 kts 275°
2026-05-04 07:41 40.65170 -73.79058 28 ft 19 kts 288°
2026-05-04 07:42 40.65210 -73.79234 28 ft 21 kts 278°
2026-05-04 07:42 40.65159 -73.79308 28 ft 12 kts 166°
2026-05-04 07:42 40.65100 -73.79353 27 ft 12 kts 238°
2026-05-04 07:42 40.65056 -73.79435 27 ft 7 kts 196°
2026-05-04 07:43 40.65015 -73.79414 29 ft 0 kts 152°